C/2021 E3 ( ZTF )

Japanese version
Home page
Updated on December 1, 2021

---------------------------------------------------------------------

* Profile

Discovery Date March 9, 2021
Magnitude 19.6 mag
Discoverer Zwicky Transient Facility

* Pictures

* Orbital Elements

Epoch 2022 June 30.0 TT = JDT 2459760.5
T 2022 June 11.91637 TT                                 Rudenko
q   1.7773912            (2000.0)            P               Q
z  -0.0004871      Peri.  228.85074     -0.11526210     -0.43252622
 +/-0.0000097      Node   104.46842     -0.37416954     +0.85282100
e   1.0008658      Incl.  112.55493     -0.92016944     -0.29260454
From 429 observations 2021 Mar. 9-Sept. 1, mean residual 0".6.

* Finding Charts

* Magnitudes Graph

        m1 = 8.0 + 5 log d + 10.0 log r

---------------------------------------------------------------------

The orbital elements are published on M.P.E.C. 2021-R75.
The charts are made with StellaNavigator Ver.10 (AstroArts).
The magnitudes graphs are made with Comet for Windows.

---------------------------------------------------------------------

Copyright(C) Seiichi Yoshida (comet@aerith.net). All rights reserved.